[[{"header":{"parameterUnit":"m.s-1","parameterCategory":1,"la1":30.2991,"la2":30.254,"lo1":-89.0895,"lo2":-89.0444,"dy":0.0017,"dx":0.0017,"nx":28,"ny":28,"refTime":"2023-10-09T09:00:00:Z","depth":0,"parameterNumber":2,"parameterNumberName":"U-component_of_WINDS"},"data":[0,0,0,0,0,0,0,0,0,0,0,0,0,0,0,0,0,0,0,0,0,0,0,0,0,0,0,0,0,0,0,0,0,0,0,0,0,0,0,0,0,0,0,0,0,0,0,0,0,0,0,0,0,0,0,0,0,0,0.9254,0.9254,0,0.9302,0.9303,0.9303,0.93,0.9299,0.9299,0.9298,0.9347,0.9348,0.935,0,0,0,0,0,0,0,0,0,0,0,0,0,0.9156,0.9158,0.9254,0.9254,0.9255,0.9302,0.9303,0.9303,0.93,0.9299,0.9298,0.9298,0.9346,0.9348,0.9351,0,0,0,0,0,0,0,0,0,0,0,0,0,0.9201,0.9159,0.9254,0.9259,0.926,0.9302,0.9303,0.9304,0.93,0.9299,0.9298,0.9297,0.9345,0.9348,0.9351,0.939,0,0,0.936,0.9361,0,0,0,0,0,0,0,0,0.9198,0.9204,0.9258,0.9259,0.926,0.9294,0.9286,0.9333,0.9301,0.9285,0.9298,0.9297,0.933,0.9334,0.9345,0.9393,0.9395,0.936,0.9362,0.9363,0.9364,0,0,0,0,0,0,0,0.9195,0.9202,0.9273,0.9258,0.926,0.9258,0.9263,0.9295,0.9313,0.9286,0.9286,0.9292,0.933,0.9342,0.9346,0.9395,0.936,0.9363,0.9364,0.9366,0.9474,0.9475,0,0,0,0,0,0,0.9191,0.92,0.9271,0.9274,0.9226,0.9261,0.9267,0.9284,0.9312,0.9316,0.9293,0.9292,0.9338,0.9343,0.9348,0.9394,0.9363,0.9366,0.9368,0.9473,0.9474,0.9476,0,0,0,0,0,0,0.9189,0.9198,0.9269,0.9237,0.9246,0.9264,0.9283,0.9286,0.9298,0.9317,0.932,0.9302,0.9337,0.9344,0.9379,0.9396,0.9367,0.937,0.9472,0.9474,0.9475,0.9487,0,0,0,0,0,0,0.9186,0.9197,0.9213,0.9237,0.9248,0.93,0.9284,0.9287,0.9303,0.9302,0.9327,0.933,0.9337,0.9375,0.9382,0.9399,0.9372,0.947,0.9473,0.9475,0.9485,0.9489,0.9492,0,0,0,0,0,0.9183,0.9215,0.9214,0.9222,0.9268,0.9301,0.9307,0.9315,0.9304,0.932,0.9332,0.9329,0.9393,0.9378,0.9387,0.9405,0.9469,0.9472,0.9474,0.9484,0.9488,0.9492,0,0,0,0,0,0,0.9192,0.9218,0.9217,0.9258,0.9278,0.9301,0.9321,0.932,0.9342,0.934,0.9349,0.9354,0.9389,0.9401,0.9384,0.9443,0.943,0.9434,0.9434,0.9438,0.9442,0.9438,0.9375,0,0,0,0,0,0.9199,0.9224,0.9246,0.9279,0.9289,0.9303,0.9318,0.9322,0.9342,0.935,0.9365,0.9385,0.9409,0.9424,0.9448,0.9487,0.9491,0.9504,0.9507,0.951,0.9513,0.9532,0.9537,0.9484,0.9484,0.9484,0,0,0.9213,0.923,0.9246,0.9282,0.9297,0.9322,0.931,0.9338,0.9356,0.9355,0.9388,0.94,0.9422,0.9458,0.9475,0.9469,0.9529,0.9513,0.9515,0.9517,0.9535,0.954,0.9545,0.9486,0.9485,0.9485,0,0,0.9251,0.9268,0.9296,0.9312,0.9335,0.9344,0.9351,0.9374,0.9381,0.9415,0.9414,0.9435,0.9478,0.9492,0.9505,0.9547,0.9544,0.9554,0.9572,0.959,0.9594,0.9598,0.9611,0.9616,0.9558,0.9558,0.9558,0,0.9265,0.9304,0.9311,0.9338,0.9353,0.9353,0.9381,0.9396,0.9425,0.9435,0.9428,0.9479,0.9494,0.9533,0.9543,0.9554,0.9561,0.9551,0.9593,0.9597,0.9601,0.9613,0.9618,0.9559,0.9559,0.9559,0.9558,0,0.9319,0.9345,0.9366,0.9393,0.9411,0.9438,0.9449,0.9465,0.9468,0.9477,0.951,0.9528,0.9553,0.9563,0.9566,0.9602,0.9597,0.9592,0.9578,0.9606,0.9618,0.9623,0.956,0.956,0.9559,0.9559,0,0,0.9364,0.9395,0.9402,0.9414,0.9439,0.9459,0.9485,0.951,0.9523,0.9543,0.9565,0.9599,0.9594,0.9608,0.9613,0.9629,0.9658,0.9622,0.9622,0.9626,0.9696,0.9698,0.9704,0.9657,0.9658,0.9659,0.9693,0,0.9403,0.9451,0.9458,0.9499,0.9522,0.9521,0.9544,0.9561,0.957,0.959,0.96,0.9623,0.9616,0.9624,0.964,0.9651,0.9672,0.9649,0.9675,0.9676,0.9668,0.971,0.9714,0.9746,0.9698,0.9699,0.9699,0,0.9455,0.9476,0.9519,0.9539,0.9549,0.9569,0.9591,0.9611,0.963,0.9635,0.965,0.9652,0.9678,0.9664,0.9699,0.9684,0.9695,0.9702,0.9703,0.9704,0.9688,0.9711,0.9756,0.976,0.9707,0.9706,0.9706,0,0.9481,0.952,0.955,0.956,0.9585,0.9598,0.9609,0.9627,0.964,0.966,0.9669,0.9691,0.9703,0.972,0.9727,0.9716,0.976,0.9748,0.9764,0.9764,0.9773,0.9772,0.9818,0.9783,0.9783,0.9782,0.9782,0,0.9523,0.9549,0.9562,0.958,0.9609,0.9616,0.9644,0.9654,0.9669,0.9688,0.969,0.9708,0.9717,0.9736,0.9742,0.9769,0.9775,0.9779,0.9779,0.9778,0.9777,0.9784,0.9781,0.9784,0.9783,0.9783,0.9783,0,0.9556,0.9566,0.9598,0.9618,0.9624,0.9643,0.966,0.9677,0.9685,0.971,0.9716,0.9729,0.9751,0.976,0.9788,0.9792,0.9822,0.9822,0.9816,0.9816,0.9831,0.9828,0.9882,0.9889,0.985,0.9851,0.9851,0,0.9581,0.9601,0.9622,0.9635,0.9646,0.9667,0.9681,0.9688,0.9703,0.9724,0.9738,0.976,0.9779,0.9814,0.9826,0.9846,0.9846,0.9863,0.9849,0.9846,0.9844,0.9842,0.9843,0.9865,0.9866,0.9866,0.9866,0,0.9624,0.9627,0.9647,0.9668,0.9684,0.9701,0.9718,0.9728,0.9738,0.9754,0.9776,0.979,0.9818,0.9839,0.986,0.987,0.9869,0.9871,0.9875,0.9873,0.9867,0.9868,0.9821,0.9869,0.9869,0.9869,0.9869,0.9869,0.9652,0.9669,0.9686,0.9707,0.972,0.9735,0.9752,0.9762,0.9781,0.9803,0.9807,0.983,0.9846,0.9874,0.9885,0.9903,0.9899,0.9906,0.9907,0.9908,0.9908,0.9866,0.9907,0.9907,0.9907,0.9907,0.9907,0,0.9693,0.9704,0.9723,0.9746,0.9762,0.976,0.9778,0.9791,0.9812,0.9828,0.9845,0.987,0.989,0.9903,0.9923,0.9935,0.9935,0.994,0.9938,0.994,0.9912,0.9905,0.9939,0.9939,0.9939,0.9939,0.9939,0.9939,0.9716,0.9743,0.9749,0.9781,0.9792,0.9815,0.9825,0.9838,0.985,0.9877,0.9894,0.9902,0.9916,0.9937,0.9955,0.9958,0.9965,0.997,0.9972,0.9946,0.9942,0.9939,0.9932,0.9971,0.9972,0.9998,0.9998,0.9999]},{"header":{"parameterUnit":"m.s-1","parameterCategory":1,"la1":30.2991,"la2":30.254,"lo1":-89.0895,"lo2":-89.0444,"dy":0.0017,"dx":0.0017,"nx":28,"ny":28,"refTime":"2023-10-09T09:00:00:Z","depth":0,"parameterNumber":3,"parameterNumberName":"V-component_of_WINDS"},"data":[0,0,0,0,0,0,0,0,0,0,0,0,0,0,0,0,0,0,0,0,0,0,0,0,0,0,0,0,0,0,0,0,0,0,0,0,0,0,0,0,0,0,0,0,0,0,0,0,0,0,0,0,0,0,0,0,0,0,3.5079,3.5079,0,3.5049,3.5049,3.5049,3.4972,3.4971,3.4969,3.4967,3.4936,3.4937,3.4937,0,0,0,0,0,0,0,0,0,0,0,0,0,3.5068,3.5068,3.5079,3.5079,3.5078,3.5049,3.5049,3.5049,3.4972,3.497,3.4969,3.4967,3.4936,3.4937,3.4937,0,0,0,0,0,0,0,0,0,0,0,0,0,3.5059,3.5069,3.5079,3.5037,3.5033,3.5049,3.5049,3.5048,3.4973,3.497,3.4968,3.4966,3.4936,3.4937,3.4938,3.4993,0,0,3.4941,3.4941,0,0,0,0,0,0,0,0,3.506,3.5059,3.5044,3.504,3.5035,3.5012,3.5033,3.503,3.4973,3.4996,3.4967,3.4965,3.4963,3.4962,3.4962,3.4991,3.499,3.4941,3.4941,3.4942,3.4942,0,0,0,0,0,0,0,3.506,3.506,3.5067,3.5043,3.5038,3.5019,3.5015,3.5032,3.4993,3.4994,3.4988,3.4985,3.4961,3.4961,3.496,3.4989,3.4941,3.4942,3.4942,3.4943,3.5058,3.5061,0,0,0,0,0,0,3.5067,3.5061,3.5068,3.5066,3.5042,3.5021,3.5016,3.5022,3.4993,3.4986,3.4988,3.4982,3.496,3.4959,3.4959,3.5018,3.4942,3.4943,3.4943,3.5056,3.5059,3.5062,0,0,0,0,0,0,3.5067,3.5069,3.5069,3.5062,3.5061,3.5024,3.503,3.5023,3.5023,3.4989,3.4981,3.4995,3.4958,3.4957,3.4984,3.5016,3.4943,3.4944,3.5053,3.5057,3.506,3.5139,0,0,0,0,0,0,3.5067,3.5069,3.509,3.5063,3.5062,3.5096,3.5033,3.5024,3.5025,3.5017,3.4994,3.4987,3.4956,3.4983,3.4985,3.5016,3.4945,3.505,3.5055,3.5059,3.5133,3.5145,3.5155,0,0,0,0,0,3.5067,3.5114,3.5092,3.5093,3.5087,3.5098,3.5097,3.506,3.5028,3.5048,3.5025,3.4988,3.5013,3.4986,3.4988,3.502,3.5048,3.5053,3.5059,3.5128,3.5143,3.5155,0,0,0,0,0,0,3.5146,3.511,3.5084,3.5125,3.5115,3.5085,3.5109,3.5077,3.5076,3.5069,3.5024,3.5019,3.5051,3.5039,3.501,3.507,3.5024,3.503,3.5076,3.509,3.51,3.5101,3.4946,0,0,0,0,0,3.5168,3.518,3.5148,3.5186,3.5183,3.5147,3.5151,3.5123,3.5111,3.5107,3.5086,3.5076,3.508,3.5085,3.5088,3.5132,3.5124,3.5155,3.5166,3.5175,3.5179,3.5198,3.521,3.508,3.508,3.508,0,0,3.5214,3.5196,3.5206,3.5202,3.5191,3.5203,3.5144,3.5161,3.5169,3.5109,3.5132,3.5117,3.5102,3.5136,3.5151,3.5127,3.5214,3.5182,3.5189,3.5189,3.5205,3.5217,3.5228,3.5083,3.5083,3.5082,0,0,3.5302,3.5291,3.532,3.531,3.5294,3.527,3.5278,3.5252,3.5239,3.5262,3.5216,3.5226,3.5236,3.5226,3.5222,3.5306,3.527,3.5308,3.5363,3.5382,3.5392,3.5401,3.5427,3.5438,3.5314,3.5314,3.5314,0,3.5361,3.5378,3.5339,3.5357,3.5355,3.5302,3.533,3.5322,3.5309,3.5308,3.5282,3.5292,3.5278,3.5308,3.5328,3.5328,3.5333,3.5309,3.5394,3.5403,3.541,3.5435,3.5445,3.5318,3.5318,3.5317,3.5317,0,3.5448,3.5461,3.5486,3.5473,3.5475,3.5498,3.5461,3.5467,3.544,3.5418,3.544,3.5422,3.5418,3.5424,3.5398,3.545,3.5435,3.5403,3.5355,3.5428,3.545,3.5459,3.5325,3.5323,3.5322,3.5321,0,0,3.5585,3.5549,3.5559,3.5551,3.5529,3.5537,3.5558,3.5554,3.5558,3.5551,3.5565,3.5574,3.5543,3.5539,3.5511,3.5528,3.5591,3.5493,3.5492,3.5509,3.5642,3.5664,3.5676,3.5568,3.557,3.5571,3.5642,0,3.5665,3.5697,3.5662,3.57,3.571,3.5659,3.5676,3.5664,3.5644,3.5648,3.5626,3.5632,3.5592,3.5589,3.5604,3.558,3.5616,3.5575,3.5578,3.5578,3.558,3.5688,3.5712,3.578,3.5651,3.5653,3.5654,0,3.5763,3.5758,3.5798,3.5771,3.5773,3.5789,3.5782,3.5788,3.5772,3.5756,3.5751,3.5717,3.5733,3.5689,3.5709,3.5681,3.5681,3.5669,3.5671,3.5667,3.5618,3.5684,3.5801,3.581,3.5667,3.5666,3.5665,0,3.5854,3.5858,3.5881,3.5877,3.5847,3.5859,3.5847,3.5829,3.5828,3.5822,3.582,3.5817,3.5814,3.5811,3.5776,3.5748,3.5799,3.5753,3.5784,3.5785,3.5795,3.5794,3.591,3.58,3.58,3.58,3.58,0,3.5945,3.597,3.5921,3.5935,3.5961,3.5921,3.5947,3.593,3.5914,3.5922,3.588,3.5888,3.5844,3.5847,3.5821,3.5839,3.5839,3.5825,3.5817,3.5827,3.5828,3.5823,3.5816,3.5803,3.5802,3.5801,3.5801,0,3.605,3.6019,3.6039,3.601,3.6002,3.6023,3.5996,3.6007,3.5984,3.5995,3.5995,3.596,3.5961,3.5927,3.5923,3.5904,3.5933,3.5918,3.5938,3.5932,3.5964,3.596,3.6078,3.609,3.5976,3.5977,3.5978,0,3.6109,3.6126,3.6098,3.61,3.609,3.6096,3.6094,3.6055,3.6055,3.6038,3.605,3.6048,3.6044,3.6049,3.6022,3.6017,3.6,3.6042,3.5999,3.6007,3.5996,3.5994,3.5994,3.605,3.6051,3.6052,3.6053,0,3.6215,3.6198,3.6198,3.6192,3.6192,3.6185,3.6176,3.618,3.6137,3.614,3.614,3.6138,3.6132,3.6129,3.6119,3.6106,3.6071,3.6067,3.6073,3.6082,3.6091,3.6083,3.5959,3.6064,3.6063,3.6062,3.6062,3.6061,3.6296,3.6308,3.6289,3.629,3.6279,3.627,3.6278,3.6256,3.6256,3.6248,3.6225,3.6229,3.6211,3.6194,3.6183,3.6185,3.6164,3.6174,3.6176,3.6178,3.6183,3.6094,3.6184,3.6183,3.6183,3.6183,3.6182,0,3.6397,3.6382,3.6383,3.6371,3.6371,3.634,3.6327,3.6329,3.6333,3.6319,3.6316,3.6316,3.6313,3.6285,3.6279,3.6285,3.6269,3.6284,3.6282,3.6278,3.6203,3.6197,3.6297,3.6297,3.6297,3.6297,3.6297,3.6297,3.6449,3.6467,3.6448,3.6459,3.6443,3.6447,3.6442,3.6434,3.6422,3.6423,3.6421,3.6403,3.6383,3.6374,3.6369,3.6361,3.6359,3.6379,3.6365,3.6295,3.6284,3.6273,3.6267,3.638,3.638,3.6439,3.644,3.644]}]]